Time,TemperatureF,DewpointF,PressureIn,WindDirection,WindDirectionDegrees,WindSpeedMPH,WindSpeedGustMPH,Humidity,HourlyPrecipIn,Conditions,Clouds,dailyrainin,SoftwareType,DateUTC
2013-02-24 00:01:00,22.0,19.0,-100.00,SSE,150,3.0,4.0,87,0.00,,,-99.99,,2013-02-24 06:01:00,
2013-02-24 00:11:00,22.0,19.0,-100.00,SSE,165,3.0,6.0,88,0.00,,,-99.99,,2013-02-24 06:11:00,
2013-02-24 00:21:00,21.0,19.0,-100.00,SSE,150,3.0,6.0,89,0.00,,,-99.99,,2013-02-24 06:21:00,
2013-02-24 00:31:00,20.0,18.0,-100.00,SSE,155,2.0,4.0,93,0.00,,,-99.99,,2013-02-24 06:31:00,
2013-02-24 00:41:00,20.0,18.0,-100.00,SSE,155,2.0,4.0,93,0.00,,,-99.99,,2013-02-24 06:41:00,
2013-02-24 00:52:00,20.0,18.0,-100.00,SSE,165,2.0,3.0,95,0.00,,,-99.99,,2013-02-24 06:52:00,
2013-02-24 01:01:00,20.0,18.0,-100.00,SSE,165,2.0,3.0,95,0.00,,,-99.99,,2013-02-24 07:01:00,
2013-02-24 01:12:00,20.0,19.0,-100.00,SSE,155,2.0,4.0,95,0.00,,,-99.99,,2013-02-24 07:12:00,
2013-02-24 01:21:00,20.0,18.0,-100.00,SE,130,3.0,4.0,95,0.00,,,-99.99,,2013-02-24 07:21:00,
2013-02-24 01:31:00,19.0,18.0,-100.00,SE,145,4.0,6.0,95,0.00,,,-99.99,,2013-02-24 07:31:00,
2013-02-24 01:42:00,20.0,18.0,-100.00,SSE,155,2.0,4.0,95,0.00,,,-99.99,,2013-02-24 07:42:00,
2013-02-24 01:51:00,18.0,17.0,-100.00,South,175,1.0,2.0,95,0.00,,,-99.99,,2013-02-24 07:51:00,
2013-02-24 02:01:00,18.0,17.0,-100.00,South,175,1.0,2.0,95,0.00,,,-99.99,,2013-02-24 08:01:00,
2013-02-24 02:11:00,19.0,18.0,-100.00,South,180,2.0,4.0,95,0.00,,,-99.99,,2013-02-24 08:11:00,
2013-02-24 02:22:00,19.0,18.0,-100.00,SSW,200,3.0,5.0,95,0.00,,,-99.99,,2013-02-24 08:22:00,
2013-02-24 02:31:00,17.0,16.0,-100.00,South,185,2.0,4.0,95,0.00,,,-99.99,,2013-02-24 08:31:00,
2013-02-24 02:42:00,17.0,16.0,-100.00,South,185,2.0,4.0,95,0.00,,,-99.99,,2013-02-24 08:42:00,
2013-02-24 02:53:00,17.0,16.0,-100.00,SSE,160,2.0,3.0,95,0.00,,,-99.99,,2013-02-24 08:53:00,
2013-02-24 03:01:00,17.0,16.0,-100.00,SSE,160,2.0,3.0,95,0.00,,,-99.99,,2013-02-24 09:01:00,
2013-02-24 03:11:00,17.0,16.0,-100.00,SSE,155,2.0,3.0,95,0.00,,,-99.99,,2013-02-24 09:11:00,
2013-02-24 03:21:00,16.0,15.0,-100.00,SE,135,2.0,4.0,95,0.00,,,-99.99,,2013-02-24 09:21:00,
2013-02-24 03:31:00,16.0,15.0,-100.00,SE,145,2.0,4.0,95,0.00,,,-99.99,,2013-02-24 09:31:00,
2013-02-24 03:41:00,16.0,15.0,-100.00,SE,145,2.0,4.0,95,0.00,,,-99.99,,2013-02-24 09:41:00,
2013-02-24 03:51:00,17.0,15.0,-100.00,SSE,150,3.0,3.0,95,0.00,,,-99.99,,2013-02-24 09:51:00,
2013-02-24 04:01:00,17.0,15.0,-100.00,SSE,150,3.0,3.0,95,0.00,,,-99.99,,2013-02-24 10:01:00,
2013-02-24 04:11:00,16.0,15.0,-100.00,SE,125,3.0,4.0,95,0.00,,,-99.99,,2013-02-24 10:11:00,
2013-02-24 04:21:00,15.0,14.0,-100.00,SE,140,2.0,4.0,95,0.00,,,-99.99,,2013-02-24 10:21:00,
2013-02-24 04:31:00,16.0,15.0,-100.00,NE,35,2.0,3.0,95,0.00,,,-99.99,,2013-02-24 10:31:00,
2013-02-24 04:41:00,16.0,15.0,-100.00,NE,35,2.0,3.0,95,0.00,,,-99.99,,2013-02-24 10:41:00,
2013-02-24 04:51:00,15.0,14.0,-100.00,NE,45,1.0,2.0,95,0.00,,,-99.99,,2013-02-24 10:51:00,
2013-02-24 05:01:00,15.0,14.0,-100.00,NE,45,1.0,2.0,95,0.00,,,-99.99,,2013-02-24 11:01:00,
2013-02-24 05:11:00,15.0,14.0,-100.00,NE,45,0.0,0.0,95,0.00,,,-99.99,,2013-02-24 11:11:00,
2013-02-24 05:21:00,15.0,14.0,-100.00,NE,45,0.0,0.0,95,0.00,,,-99.99,,2013-02-24 11:21:00,
2013-02-24 05:32:00,15.0,14.0,-100.00,ENE,70,1.0,2.0,95,0.00,,,-99.99,,2013-02-24 11:32:00,
2013-02-24 05:41:00,15.0,14.0,-100.00,ENE,70,1.0,2.0,95,0.00,,,-99.99,,2013-02-24 11:41:00,
2013-02-24 05:52:00,15.0,14.0,-100.00,NE,45,0.0,2.0,95,0.00,,,-99.99,,2013-02-24 11:52:00,
2013-02-24 06:01:00,15.0,14.0,-100.00,NE,45,0.0,2.0,95,0.00,,,-99.99,,2013-02-24 12:01:00,
2013-02-24 06:11:00,14.0,13.0,-100.00,SSW,195,3.0,4.0,95,0.00,,,-99.99,,2013-02-24 12:11:00,
2013-02-24 06:21:00,15.0,13.0,-100.00,SSW,195,1.0,4.0,95,0.00,,,-99.99,,2013-02-24 12:21:00,
2013-02-24 06:32:00,15.0,14.0,-100.00,SSW,200,1.0,2.0,95,0.00,,,-99.99,,2013-02-24 12:32:00,
2013-02-24 06:46:00,14.0,13.0,-100.00,SW,215,3.0,4.0,95,0.00,,,-99.99,,2013-02-24 12:46:00,
2013-02-24 06:55:00,14.0,13.0,-100.00,WSW,240,2.0,4.0,95,0.00,,,-99.99,,2013-02-24 12:55:00,
2013-02-24 07:09:00,14.0,13.0,-100.00,WSW,240,2.0,4.0,95,0.00,,,-99.99,,2013-02-24 13:09:00,
2013-02-24 07:25:00,14.0,13.0,-100.00,SSW,210,1.0,4.0,95,0.00,,,-99.99,,2013-02-24 13:25:00,
2013-02-24 07:33:00,15.0,13.0,-100.00,SSE,155,1.0,2.0,95,0.00,,,-99.99,,2013-02-24 13:33:00,
2013-02-24 07:43:00,15.0,13.0,-100.00,SSE,155,1.0,2.0,95,0.00,,,-99.99,,2013-02-24 13:43:00,
2013-02-24 07:52:00,16.0,15.0,-100.00,SSE,160,2.0,3.0,95,0.00,,,-99.99,,2013-02-24 13:52:00,
2013-02-24 08:03:00,16.0,15.0,-100.00,SSE,160,2.0,3.0,95,0.00,,,-99.99,,2013-02-24 14:03:00,
2013-02-24 08:13:00,16.0,15.0,-100.00,SE,125,2.0,5.0,95,0.00,,,-99.99,,2013-02-24 14:13:00,
2013-02-24 08:23:00,18.0,17.0,-100.00,SSE,155,1.0,3.0,95,0.00,,,-99.99,,2013-02-24 14:23:00,
2013-02-24 08:33:00,20.0,19.0,-100.00,SSE,155,2.0,4.0,95,0.00,,,-99.99,,2013-02-24 14:33:00,
2013-02-24 08:43:00,20.0,19.0,-100.00,SSE,155,2.0,4.0,95,0.00,,,-99.99,,2013-02-24 14:43:00,
2013-02-24 08:53:00,22.0,20.0,-100.00,SE,130,2.0,6.0,93,0.00,,,-99.99,,2013-02-24 14:53:00,
2013-02-24 09:02:00,22.0,20.0,-100.00,SE,130,2.0,6.0,93,0.00,,,-99.99,,2013-02-24 15:02:00,
2013-02-24 09:13:00,21.0,20.0,-100.00,ESE,115,2.0,4.0,95,0.00,,,-99.99,,2013-02-24 15:13:00,
2013-02-24 09:22:00,21.0,20.0,-100.00,ESE,110,3.0,5.0,95,0.00,,,-99.99,,2013-02-24 15:22:00,
2013-02-24 09:32:00,24.0,22.0,-100.00,ESE,110,2.0,4.0,89,0.00,,,-99.99,,2013-02-24 15:32:00,
2013-02-24 09:42:00,24.0,22.0,-100.00,ESE,110,2.0,4.0,89,0.00,,,-99.99,,2013-02-24 15:42:00,
2013-02-24 09:52:00,26.0,22.0,-100.00,East,80,1.0,3.0,86,0.00,,,-99.99,,2013-02-24 15:52:00,
2013-02-24 10:01:00,26.0,22.0,-100.00,East,80,1.0,3.0,86,0.00,,,-99.99,,2013-02-24 16:01:00,
2013-02-24 10:11:00,27.0,23.0,-100.00,East,80,2.0,4.0,85,0.00,,,-99.99,,2013-02-24 16:11:00,
2013-02-24 10:21:00,27.0,23.0,-100.00,ESE,115,3.0,4.0,82,0.00,,,-99.99,,2013-02-24 16:21:00,
2013-02-24 10:32:00,30.0,24.0,-100.00,East,90,1.0,3.0,78,0.00,,,-99.99,,2013-02-24 16:32:00,
2013-02-24 10:41:00,30.0,24.0,-100.00,East,90,1.0,3.0,78,0.00,,,-99.99,,2013-02-24 16:41:00,
2013-02-24 10:52:00,31.0,25.0,-100.00,ENE,70,2.0,3.0,75,0.00,,,-99.99,,2013-02-24 16:52:00,
2013-02-24 11:01:00,31.0,25.0,-100.00,ENE,70,2.0,3.0,75,0.00,,,-99.99,,2013-02-24 17:01:00,
2013-02-24 11:11:00,33.0,25.0,-100.00,East,80,1.0,3.0,73,0.00,,,-99.99,,2013-02-24 17:11:00,
2013-02-24 11:21:00,34.0,26.0,-100.00,SE,125,2.0,4.0,72,0.00,,,-99.99,,2013-02-24 17:21:00,
2013-02-24 11:32:00,35.0,26.0,-100.00,SSE,160,2.0,4.0,69,0.00,,,-99.99,,2013-02-24 17:32:00,
2013-02-24 11:41:00,35.0,26.0,-100.00,SSE,160,2.0,4.0,69,0.00,,,-99.99,,2013-02-24 17:41:00,
2013-02-24 11:52:00,35.0,27.0,-100.00,ESE,115,4.0,5.0,71,0.00,,,-99.99,,2013-02-24 17:52:00,
2013-02-24 12:01:00,35.0,27.0,-100.00,ESE,115,4.0,5.0,71,0.00,,,-99.99,,2013-02-24 18:01:00,
2013-02-24 12:11:00,35.0,27.0,-100.00,ESE,120,5.0,6.0,71,0.00,,,-99.99,,2013-02-24 18:11:00,
2013-02-24 12:22:00,36.0,27.0,-100.00,SE,125,4.0,6.0,70,0.00,,,-99.99,,2013-02-24 18:22:00,
2013-02-24 12:32:00,37.0,27.0,-100.00,SE,135,4.0,7.0,68,0.00,,,-99.99,,2013-02-24 18:32:00,
2013-02-24 12:42:00,37.0,27.0,-100.00,SE,135,4.0,7.0,68,0.00,,,-99.99,,2013-02-24 18:42:00,
2013-02-24 12:51:00,37.0,27.0,-100.00,East,100,2.0,6.0,65,0.00,,,-99.99,,2013-02-24 18:51:00,
2013-02-24 13:01:00,37.0,27.0,-100.00,East,100,2.0,6.0,65,0.00,,,-99.99,,2013-02-24 19:01:00,
2013-02-24 13:11:00,38.0,28.0,-100.00,ENE,75,4.0,5.0,66,0.00,,,-99.99,,2013-02-24 19:11:00,
2013-02-24 13:22:00,38.0,27.0,-100.00,ESE,115,3.0,6.0,64,0.00,,,-99.99,,2013-02-24 19:22:00,
2013-02-24 13:32:00,38.0,27.0,-100.00,ESE,120,4.0,6.0,64,0.00,,,-99.99,,2013-02-24 19:32:00,
2013-02-24 13:41:00,39.0,28.0,-100.00,SE,125,4.0,6.0,64,0.00,,,-99.99,,2013-02-24 19:41:00,
2013-02-24 13:51:00,42.0,29.0,-100.00,SW,220,5.0,8.0,60,0.00,,,-99.99,,2013-02-24 19:51:00,
2013-02-24 14:02:00,42.0,29.0,-100.00,SW,220,5.0,8.0,60,0.00,,,-99.99,,2013-02-24 20:02:00,
2013-02-24 14:11:00,40.0,29.0,-100.00,ESE,120,4.0,6.0,63,0.00,,,-99.99,,2013-02-24 20:11:00,
2013-02-24 14:21:00,40.0,28.0,-100.00,East,95,4.0,6.0,62,0.00,,,-99.99,,2013-02-24 20:21:00,
2013-02-24 14:32:00,41.0,30.0,-100.00,SE,130,7.0,10.0,65,0.00,,,-99.99,,2013-02-24 20:32:00,
2013-02-24 14:41:00,41.0,30.0,-100.00,SE,130,7.0,10.0,65,0.00,,,-99.99,,2013-02-24 20:41:00,
2013-02-24 14:52:00,40.0,31.0,-100.00,SE,125,7.0,11.0,70,0.00,,,-99.99,,2013-02-24 20:52:00,
2013-02-24 15:01:00,40.0,31.0,-100.00,SE,125,7.0,11.0,70,0.00,,,-99.99,,2013-02-24 21:01:00,
2013-02-24 15:11:00,40.0,31.0,-100.00,ESE,105,7.0,9.0,71,0.00,,,-99.99,,2013-02-24 21:11:00,
2013-02-24 15:21:00,40.0,32.0,-100.00,ESE,110,7.0,11.0,71,0.00,,,-99.99,,2013-02-24 21:21:00,
2013-02-24 15:32:00,41.0,32.0,-100.00,SE,130,7.0,9.0,71,0.00,,,-99.99,,2013-02-24 21:32:00,
2013-02-24 15:41:00,40.0,32.0,-100.00,ESE,110,7.0,11.0,72,0.00,,,-99.99,,2013-02-24 21:41:00,
2013-02-24 15:52:00,40.0,31.0,-100.00,ESE,115,8.0,10.0,70,0.00,,,-99.99,,2013-02-24 21:52:00,
2013-02-24 16:01:00,40.0,31.0,-100.00,ESE,115,8.0,10.0,70,0.00,,,-99.99,,2013-02-24 22:01:00,
2013-02-24 16:11:00,40.0,32.0,-100.00,East,100,6.0,9.0,70,0.00,,,-99.99,,2013-02-24 22:11:00,
2013-02-24 16:21:00,40.0,31.0,-100.00,ESE,110,7.0,9.0,70,0.00,,,-99.99,,2013-02-24 22:21:00,
2013-02-24 16:31:00,40.0,33.0,-100.00,East,100,5.0,9.0,74,0.00,,,-99.99,,2013-02-24 22:31:00,
2013-02-24 16:41:00,40.0,32.0,-100.00,East,90,6.0,10.0,72,0.00,,,-99.99,,2013-02-24 22:41:00,
2013-02-24 16:51:00,40.0,32.0,-100.00,East,100,7.0,9.0,72,0.00,,,-99.99,,2013-02-24 22:51:00,
2013-02-24 17:02:00,40.0,32.0,-100.00,East,100,7.0,9.0,72,0.00,,,-99.99,,2013-02-24 23:02:00,
2013-02-24 17:11:00,39.0,32.0,-100.00,East,100,7.0,9.0,76,0.00,,,-99.99,,2013-02-24 23:11:00,
2013-02-24 17:21:00,38.0,32.0,-100.00,East,100,8.0,11.0,78,0.00,,,-99.99,,2013-02-24 23:21:00,
2013-02-24 17:31:00,38.0,33.0,-100.00,East,100,6.0,10.0,82,0.00,,,-99.99,,2013-02-24 23:31:00,
2013-02-24 17:41:00,38.0,33.0,-100.00,East,100,6.0,10.0,82,0.00,,,-99.99,,2013-02-24 23:41:00,
2013-02-24 17:52:00,37.0,32.0,-100.00,SE,125,4.0,7.0,83,0.00,,,-99.99,,2013-02-24 23:52:00,
2013-02-24 18:01:00,37.0,32.0,-100.00,SE,125,4.0,7.0,83,0.00,,,-99.99,,2013-02-25 00:01:00,
2013-02-24 18:11:00,36.0,31.0,-100.00,SE,125,4.0,7.0,81,0.00,,,-99.99,,2013-02-25 00:11:00,
2013-02-24 18:21:00,36.0,31.0,-100.00,SE,125,4.0,7.0,82,0.00,,,-99.99,,2013-02-25 00:21:00,
2013-02-24 18:31:00,36.0,31.0,-100.00,SE,130,4.0,7.0,84,0.00,,,-99.99,,2013-02-25 00:31:00,
2013-02-24 18:42:00,36.0,31.0,-100.00,SE,130,4.0,7.0,84,0.00,,,-99.99,,2013-02-25 00:42:00,
2013-02-24 18:51:00,35.0,31.0,-100.00,SE,130,4.0,7.0,84,0.00,,,-99.99,,2013-02-25 00:51:00,
2013-02-24 19:01:00,35.0,31.0,-100.00,SE,145,4.0,6.0,84,0.00,,,-99.99,,2013-02-25 01:01:00,
2013-02-24 19:11:00,35.0,31.0,-100.00,SE,145,4.0,6.0,83,0.00,,,-99.99,,2013-02-25 01:11:00,
2013-02-24 19:21:00,35.0,31.0,-100.00,SE,135,4.0,6.0,82,0.00,,,-99.99,,2013-02-25 01:21:00,
2013-02-24 19:31:00,35.0,31.0,-100.00,SE,130,4.0,5.0,85,0.00,,,-99.99,,2013-02-25 01:31:00,
2013-02-24 19:42:00,34.0,31.0,-100.00,ESE,110,5.0,6.0,89,0.00,,,-99.99,,2013-02-25 01:42:00,
2013-02-24 19:51:00,34.0,31.0,-100.00,ESE,120,4.0,6.0,88,0.00,,,-99.99,,2013-02-25 01:51:00,
2013-02-24 20:01:00,34.0,31.0,-100.00,ESE,120,4.0,6.0,88,0.00,,,-99.99,,2013-02-25 02:01:00,
2013-02-24 20:11:00,34.0,30.0,-100.00,SE,140,5.0,6.0,87,0.00,,,-99.99,,2013-02-25 02:11:00,
2013-02-24 20:21:00,34.0,31.0,-100.00,SE,145,4.0,6.0,87,0.00,,,-99.99,,2013-02-25 02:21:00,
2013-02-24 20:31:00,33.0,30.0,-100.00,SE,130,5.0,6.0,87,0.00,,,-99.99,,2013-02-25 02:31:00,
2013-02-24 20:41:00,33.0,31.0,-100.00,SE,125,4.0,6.0,91,0.00,,,-99.99,,2013-02-25 02:41:00,
2013-02-24 20:52:00,33.0,30.0,-100.00,SE,125,3.0,5.0,90,0.00,,,-99.99,,2013-02-25 02:52:00,
2013-02-24 21:01:00,33.0,30.0,-100.00,SE,125,3.0,5.0,90,0.00,,,-99.99,,2013-02-25 03:01:00,
2013-02-24 21:11:00,32.0,30.0,-100.00,SE,130,4.0,6.0,91,0.00,,,-99.99,,2013-02-25 03:11:00,
2013-02-24 21:21:00,32.0,30.0,-100.00,SE,145,3.0,6.0,91,0.00,,,-99.99,,2013-02-25 03:21:00,
2013-02-24 21:31:00,32.0,30.0,-100.00,SE,125,3.0,5.0,92,0.00,,,-99.99,,2013-02-25 03:31:00,
2013-02-24 21:41:00,31.0,30.0,-100.00,SE,125,4.0,7.0,93,0.00,,,-99.99,,2013-02-25 03:41:00,
2013-02-24 21:51:00,31.0,30.0,-100.00,SE,145,3.0,4.0,94,0.00,,,-99.99,,2013-02-25 03:51:00,
2013-02-24 22:01:00,31.0,30.0,-100.00,SE,145,3.0,4.0,94,0.00,,,-99.99,,2013-02-25 04:01:00,
2013-02-24 22:11:00,31.0,29.0,-100.00,SE,135,1.0,2.0,94,0.00,,,-99.99,,2013-02-25 04:11:00,
2013-02-24 22:21:00,31.0,29.0,-100.00,SE,130,2.0,3.0,94,0.00,,,-99.99,,2013-02-25 04:21:00,
2013-02-24 22:31:00,30.0,29.0,-100.00,ESE,105,2.0,3.0,95,0.00,,,-99.99,,2013-02-25 04:31:00,
2013-02-24 22:41:00,30.0,29.0,-100.00,ESE,105,2.0,3.0,95,0.00,,,-99.99,,2013-02-25 04:41:00,
2013-02-24 22:51:00,29.0,28.0,-100.00,ESE,110,2.0,4.0,95,0.00,,,-99.99,,2013-02-25 04:51:00,
2013-02-24 23:01:00,29.0,28.0,-100.00,ESE,110,2.0,4.0,95,0.00,,,-99.99,,2013-02-25 05:01:00,
2013-02-24 23:11:00,30.0,28.0,-100.00,SSE,150,2.0,4.0,95,0.00,,,-99.99,,2013-02-25 05:11:00,
2013-02-24 23:22:00,30.0,29.0,-100.00,SSE,150,2.0,4.0,95,0.00,,,-99.99,,2013-02-25 05:22:00,
2013-02-24 23:31:00,30.0,29.0,-100.00,SE,140,3.0,4.0,95,0.00,,,-99.99,,2013-02-25 05:31:00,
2013-02-24 23:41:00,29.0,27.0,-100.00,ESE,115,3.0,4.0,95,0.00,,,-99.99,,2013-02-25 05:41:00,
2013-02-24 23:52:00,29.0,27.0,-100.00,SE,125,3.0,4.0,95,0.00,,,-99.99,,2013-02-25 05:52:00,